| time (UTC) | temp F | wind direction | speed MPH | gust MPH | rain 1hr in | rain 24hr in | rain mn in | humidity % | barometer mb |
| 20260510151403 | 75 | 192 | 13.0 | 26.0 | 0.00 | 0.00 | 0.00 | 53 | 1008.3 |
| 20260510150904 | 75 | 205 | 16.0 | 25.0 | 0.00 | 0.00 | 0.00 | 53 | 1008.4 |
| 20260510150418 | 75 | 168 | 12.0 | 26.0 | 0.00 | 0.00 | 0.00 | 54 | 1008.6 |
| 20260510145904 | 75 | 163 | 17.0 | 31.0 | 0.00 | 0.00 | 0.00 | 54 | 1008.6 |
| 20260510144904 | 75 | 189 | 13.0 | 23.0 | 0.00 | 0.00 | 0.00 | 55 | 1008.6 |
| 20260510144404 | 74 | 146 | 7.0 | 17.0 | 0.00 | 0.00 | 0.00 | 56 | 1008.7 |
| 20260510143903 | 74 | 160 | 6.0 | 12.0 | 0.00 | 0.00 | 0.00 | 55 | 1008.9 |
| 20260510142404 | 74 | 163 | 12.0 | 21.0 | 0.00 | 0.00 | 0.00 | 53 | 1009.1 |
| 20260510141404 | 75 | 139 | 9.0 | 18.0 | 0.00 | 0.00 | 0.00 | 53 | 1009.2 |
| 20260510140903 | 74 | 124 | 7.0 | 14.0 | 0.00 | 0.00 | 0.00 | 53 | 1009.1 |
| 20260510140403 | 75 | 162 | 11.0 | 22.0 | 0.00 | 0.00 | 0.00 | 53 | 1009.2 |
| 20260510135903 | 75 | 78 | 10.0 | 17.0 | 0.00 | 0.00 | 0.00 | 53 | 1009.2 |
| 20260510135403 | 75 | 60 | 8.0 | 16.0 | 0.00 | 0.00 | 0.00 | 53 | 1009.1 |
| 20260510134903 | 74 | 137 | 5.0 | 20.0 | 0.00 | 0.00 | 0.00 | 53 | 1009.3 |
| 20260510134404 | 74 | 120 | 10.0 | 21.0 | 0.00 | 0.00 | 0.00 | 53 | 1009.6 |
| 20260510132904 | 73 | 154 | 11.0 | 23.0 | 0.00 | 0.00 | 0.00 | 54 | 1009.9 |
| 20260510130903 | 75 | 112 | 12.0 | 18.0 | 0.00 | 0.03 | 0.00 | 49 | 1009.9 |
| 20260510130403 | 75 | 127 | 9.0 | 17.0 | 0.00 | 0.03 | 0.00 | 49 | 1010.1 |
| 20260510125404 | 74 | 172 | 9.0 | 21.0 | 0.00 | 0.03 | 0.00 | 52 | 1010.1 |
| 20260510124904 | 74 | 150 | 13.0 | 20.0 | 0.00 | 0.03 | 0.00 | 54 | 1010.2 |
| 20260510124404 | 73 | 218 | 5.0 | 20.0 | 0.00 | 0.03 | 0.00 | 56 | 1010.2 |
| 20260510123904 | 74 | 111 | 13.0 | 28.0 | 0.00 | 0.03 | 0.00 | 55 | 1010.2 |
| 20260510122904 | 75 | 150 | 13.0 | 20.0 | 0.00 | 0.04 | 0.00 | 50 | 1010.3 |
| 20260510121904 | 75 | 120 | 8.0 | 20.0 | 0.00 | 0.04 | 0.00 | 46 | 1010.1 |
| 20260510121404 | 75 | 140 | 13.0 | 24.0 | 0.00 | 0.05 | 0.00 | 48 | 1010.2 |
| 20260510120904 | 75 | 145 | 16.0 | 26.0 | 0.00 | 0.05 | 0.00 | 48 | 1010.2 |
| 20260510120404 | 74 | 123 | 12.0 | 20.0 | 0.00 | 0.06 | 0.00 | 53 | 1010.1 |
| 20260510115904 | 74 | 136 | 16.0 | 23.0 | 0.00 | 0.08 | 0.00 | 52 | 1010.4 |
| 20260510115403 | 74 | 128 | 14.0 | 25.0 | 0.00 | 0.10 | 0.00 | 51 | 1010.3 |
| 20260510114903 | 75 | 119 | 12.0 | 21.0 | 0.00 | 0.12 | 0.00 | 49 | 1010.5 |
| 20260510113404 | 76 | 112 | 12.0 | 20.0 | 0.00 | 0.18 | 0.00 | 48 | 1010.7 |
| 20260510112904 | 75 | 154 | 9.0 | 14.0 | 0.00 | 0.21 | 0.00 | 46 | 1010.8 |
| 20260510112402 | 75 | 127 | 12.0 | 18.0 | 0.00 | 0.25 | 0.00 | 48 | 1010.8 |
| 20260510111902 | 74 | 157 | 9.0 | 18.0 | 0.00 | 0.28 | 0.00 | 48 | 1010.9 |
| 20260510111402 | 73 | 134 | 12.0 | 17.0 | 0.00 | 0.29 | 0.00 | 52 | 1011.0 |
| 20260510110902 | 71 | 107 | 7.0 | 17.0 | 0.00 | 0.30 | 0.00 | 63 | 1011.2 |
| 20260510105902 | 69 | 71 | 10.0 | 15.0 | 0.00 | 0.40 | 0.00 | 73 | 1011.5 |
| 20260510105403 | 69 | 75 | 10.0 | 14.0 | 0.00 | 0.45 | 0.00 | 74 | 1011.6 |
| 20260510104903 | 69 | 72 | 7.0 | 17.0 | 0.00 | 0.46 | 0.00 | 74 | 1011.7 |
| 20260510104403 | 69 | 74 | 10.0 | 14.0 | 0.00 | 0.46 | 0.00 | 73 | 1011.8 |
| 20260510103902 | 69 | 74 | 10.0 | 18.0 | 0.00 | 0.49 | 0.00 | 74 | 1011.9 |
| 20260510103402 | 69 | 58 | 6.0 | 13.0 | 0.00 | 0.50 | 0.00 | 74 | 1012.0 |
| 20260510102902 | 68 | 76 | 8.0 | 12.0 | 0.00 | 0.50 | 0.00 | 73 | 1012.1 |
| 20260510100902 | 69 | 71 | 7.0 | 12.0 | 0.00 | 0.51 | 0.00 | 68 | 1012.2 |
| 20260510100402 | 68 | 70 | 9.0 | 12.0 | 0.00 | 0.51 | 0.00 | 68 | 1012.2 |
| 20260510095903 | 69 | 81 | 7.0 | 12.0 | 0.00 | 0.51 | 0.00 | 68 | 1012.2 |
| 20260510095403 | 69 | 91 | 6.0 | 9.0 | 0.00 | 0.51 | 0.00 | 68 | 1012.2 |
| 20260510094903 | 70 | 82 | 6.0 | 12.0 | 0.00 | 0.51 | 0.00 | 65 | 1012.1 |
| 20260510094402 | 70 | 59 | 4.0 | 7.0 | 0.00 | 0.51 | 0.00 | 65 | 1012.2 |
| 20260510093903 | 69 | 93 | 3.0 | 8.0 | 0.00 | 0.52 | 0.00 | 65 | 1012.3 |
| 20260510093402 | 69 | 72 | 4.0 | 6.0 | 0.00 | 0.52 | 0.00 | 64 | 1012.3 |
| 20260510092902 | 70 | 88 | 5.0 | 6.0 | 0.00 | 0.52 | 0.00 | 63 | 1012.3 |
| 20260510092402 | 70 | 78 | 3.0 | 6.0 | 0.00 | 0.55 | 0.00 | 63 | 1012.3 |
| 20260510091902 | 70 | 72 | 3.0 | 6.0 | 0.00 | 0.55 | 0.00 | 62 | 1012.2 |
| 20260510091402 | 70 | 59 | 3.0 | 6.0 | 0.00 | 0.55 | 0.00 | 64 | 1012.2 |
| 20260510090902 | 70 | 78 | 2.0 | 5.0 | 0.00 | 0.56 | 0.00 | 64 | 1012.3 |
| 20260510090402 | 70 | 18 | 3.0 | 3.0 | 0.00 | 0.62 | 0.00 | 63 | 1012.3 |
| 20260510085902 | 70 | 0 | 3.0 | 5.0 | 0.00 | 0.71 | 0.00 | 62 | 1012.2 |
| 20260510084902 | 68 | 16 | 2.0 | 7.0 | 0.00 | 0.82 | 0.00 | 67 | 1012.3 |
| 20260510084402 | 69 | 31 | 3.0 | 5.0 | 0.00 | 0.89 | 0.00 | 67 | 1012.2 |
| 20260510083902 | 69 | 356 | 2.0 | 5.0 | 0.00 | 0.93 | 0.00 | 67 | 1012.2 |
| 20260510083402 | 69 | 34 | 2.0 | 3.0 | 0.00 | 0.94 | 0.00 | 69 | 1012.4 |
| 20260510082902 | 68 | 59 | 2.0 | 5.0 | 0.00 | 0.94 | 0.00 | 69 | 1012.3 |
| 20260510082403 | 68 | 22 | 2.0 | 3.0 | 0.00 | 0.94 | 0.00 | 70 | 1012.2 |
| 20260510081902 | 68 | 69 | 3.0 | 6.0 | 0.00 | 0.94 | 0.00 | 70 | 1012.2 |
| 20260510081402 | 69 | 64 | 2.0 | 5.0 | 0.00 | 0.94 | 0.00 | 70 | 1012.1 |
| 20260510080902 | 69 | 61 | 2.0 | 5.0 | 0.00 | 0.94 | 0.00 | 70 | 1012.1 |
| 20260510080402 | 69 | 24 | 2.0 | 3.0 | 0.00 | 0.94 | 0.00 | 68 | 1012.4 |
| 20260510075902 | 69 | 44 | 2.0 | 3.0 | 0.00 | 0.94 | 0.00 | 68 | 1012.4 |
| 20260510075402 | 69 | 51 | 2.0 | 3.0 | 0.00 | 0.94 | 0.00 | 68 | 1012.6 |
| 20260510074402 | 69 | 34 | 2.0 | 3.0 | 0.00 | 0.94 | 0.00 | 68 | 1012.7 |
| 20260510073902 | 69 | 58 | 1.0 | 3.0 | 0.00 | 0.94 | 0.00 | 69 | 1012.6 |
| 20260510073402 | 69 | 92 | 1.0 | 3.0 | 0.00 | 0.94 | 0.00 | 70 | 1012.6 |
| 20260510072903 | 69 | 120 | 1.0 | 2.0 | 0.00 | 0.94 | 0.00 | 70 | 1012.8 |
| 20260510071902 | 69 | 120 | 1.0 | 2.0 | 0.00 | 0.96 | 0.00 | 69 | 1012.7 |
| 20260510071403 | 68 | 120 | 0.0 | 1.0 | 0.00 | 0.96 | 0.00 | 71 | 1012.7 |
| 20260510070903 | 68 | 120 | 1.0 | 2.0 | 0.00 | 0.96 | 0.00 | 72 | 1012.5 |
| 20260510070402 | 67 | 120 | 1.0 | 2.0 | 0.00 | 0.96 | 0.00 | 75 | 1012.4 |
| 20260510065902 | 66 | 120 | 0.0 | 2.0 | 0.00 | 0.96 | 0.00 | 76 | 1012.3 |
| 20260510065403 | 66 | 132 | 1.0 | 3.0 | 0.00 | 0.96 | 0.00 | 77 | 1012.3 |
| 20260510064902 | 65 | 140 | 0.0 | 1.0 | 0.00 | 0.97 | 0.00 | 77 | 1012.2 |
| 20260510064402 | 65 | 140 | 1.0 | 3.0 | 0.00 | 0.97 | 0.00 | 79 | 1012.1 |
| 20260510063903 | 64 | 140 | 1.0 | 3.0 | 0.00 | 0.98 | 0.00 | 80 | 1012.1 |
| 20260510063402 | 64 | 140 | 1.0 | 2.0 | 0.00 | 1.00 | 0.00 | 80 | 1012.0 |
| 20260510062902 | 63 | 140 | 0.0 | 2.0 | 0.00 | 1.05 | 0.00 | 82 | 1012.0 |
| 20260510062402 | 63 | 140 | 3.0 | 5.0 | 0.00 | 1.10 | 0.00 | 82 | 1012.0 |
| 20260510061902 | 62 | 136 | 3.0 | 3.0 | 0.00 | 1.13 | 0.00 | 82 | 1012.0 |
| 20260510061402 | 63 | 115 | 0.0 | 0.0 | 0.00 | 1.13 | 0.00 | 80 | 1012.0 |
| 20260510060903 | 63 | 115 | 2.0 | 5.0 | 0.00 | 1.13 | 0.00 | 80 | 1011.9 |
| 20260510060403 | 63 | 104 | 2.0 | 3.0 | 0.00 | 1.13 | 0.00 | 77 | 1011.9 |
| 20260510055902 | 62 | 177 | 0.0 | 2.0 | 0.00 | 1.13 | 0.00 | 79 | 1011.9 |
| 20260510055403 | 62 | 177 | 0.0 | 1.0 | 0.00 | 1.13 | 0.00 | 80 | 1011.9 |
| 20260510054902 | 61 | 177 | 0.0 | 0.0 | 0.00 | 1.13 | 0.00 | 80 | 1011.9 |
| 20260510054402 | 61 | 177 | 1.0 | 5.0 | 0.00 | 1.13 | 0.00 | 81 | 1011.9 |
| 20260510053902 | 61 | 201 | 3.0 | 3.0 | 0.00 | 1.13 | 0.00 | 79 | 1011.9 |
| 20260510052903 | 61 | 144 | 0.0 | 2.0 | 0.00 | 1.13 | 0.00 | 80 | 1011.8 |
| 20260510052402 | 61 | 144 | 0.0 | 1.0 | 0.00 | 1.13 | 0.00 | 79 | 1011.8 |
| 20260510051902 | 61 | 144 | 0.0 | 3.0 | 0.00 | 1.13 | 0.00 | 80 | 1011.8 |
| 20260510051402 | 61 | 66 | 0.0 | 2.0 | 0.00 | 1.13 | 0.00 | 78 | 1011.7 |
| 20260510045902 | 59 | 174 | 0.0 | 1.0 | 0.00 | 1.13 | 0.00 | 82 | 1011.6 |
| 20260510045403 | 59 | 174 | 0.0 | 2.0 | 0.00 | 1.13 | 0.00 | 83 | 1011.5 |
| 20260510044902 | 59 | 174 | 3.0 | 3.0 | 0.00 | 1.13 | 0.00 | 83 | 1011.5 |
| 20260510044402 | 59 | 182 | 3.0 | 5.0 | 0.00 | 1.13 | 0.00 | 81 | 1011.5 |
| 20260510043903 | 60 | 3 | 2.0 | 3.0 | 0.00 | 1.13 | 0.00 | 81 | 1011.4 |
| 20260510043402 | 60 | 24 | 1.0 | 3.0 | 0.00 | 1.13 | 0.00 | 82 | 1011.4 |
| 20260510042903 | 60 | 276 | 0.0 | 0.0 | 0.00 | 1.13 | 0.00 | 81 | 1011.4 |
| 20260510042402 | 60 | 276 | 0.0 | 2.0 | 0.00 | 1.13 | 0.00 | 81 | 1011.3 |
| 20260510041902 | 60 | 276 | 1.0 | 3.0 | 0.00 | 1.13 | 0.00 | 81 | 1011.4 |
| 20260510041402 | 59 | 276 | 2.0 | 3.0 | 0.00 | 1.13 | 0.00 | 82 | 1011.3 |
| 20260510040402 | 59 | 251 | 2.0 | 3.0 | 0.00 | 1.13 | 0.00 | 83 | 1011.3 |
| 20260510035402 | 59 | 235 | 2.0 | 3.0 | 0.00 | 1.13 | 0.00 | 83 | 1011.3 |
| 20260510034903 | 59 | 236 | 1.0 | 3.0 | 0.00 | 1.13 | 0.00 | 84 | 1011.4 |
| 20260510033903 | 59 | 211 | 0.0 | 0.0 | 0.00 | 1.13 | 0.00 | 84 | 1011.3 |
| 20260510033402 | 59 | 211 | 0.0 | 0.0 | 0.00 | 1.13 | 0.00 | 84 | 1011.3 |
| 20260510032903 | 59 | 211 | 0.0 | 0.0 | 0.00 | 1.13 | 0.00 | 84 | 1011.3 |
| 20260510031903 | 58 | 286 | 0.0 | 1.0 | 0.00 | 1.13 | 0.00 | 86 | 1011.2 |
| 20260510030902 | 58 | 286 | 0.0 | 0.0 | 0.00 | 1.13 | 0.00 | 85 | 1011.3 |
| 20260510030403 | 59 | 286 | 0.0 | 0.0 | 0.00 | 1.13 | 0.00 | 84 | 1011.3 |
| 20260510025903 | 58 | 286 | 0.0 | 0.0 | 0.00 | 1.13 | 0.00 | 84 | 1011.3 |
| 20260510025402 | 58 | 286 | 0.0 | 0.0 | 0.00 | 1.13 | 0.00 | 84 | 1011.3 |
| 20260510024403 | 59 | 286 | 0.0 | 0.0 | 0.00 | 1.13 | 0.00 | 84 | 1011.3 |
| 20260510023902 | 59 | 286 | 0.0 | 0.0 | 0.00 | 1.13 | 0.00 | 83 | 1011.4 |
| 20260510022402 | 60 | 286 | 0.0 | 1.0 | 0.00 | 1.13 | 0.00 | 83 | 1011.3 |
| 20260510021903 | 59 | 283 | 1.0 | 3.0 | 0.00 | 1.13 | 0.00 | 83 | 1011.4 |
| 20260510020902 | 59 | 238 | 2.0 | 3.0 | 0.00 | 1.13 | 0.00 | 83 | 1011.4 |
| 20260510020403 | 59 | 231 | 2.0 | 3.0 | 0.00 | 1.13 | 0.00 | 84 | 1011.3 |
| 20260510015902 | 59 | 219 | 1.0 | 3.0 | 0.00 | 1.13 | 0.00 | 84 | 1011.2 |
| 20260510015402 | 59 | 219 | 0.0 | 0.0 | 0.00 | 1.13 | 0.00 | 85 | 1011.3 |
| 20260510014903 | 59 | 219 | 0.0 | 0.0 | 0.00 | 1.13 | 0.00 | 85 | 1011.3 |
| 20260510014403 | 59 | 219 | 0.0 | 0.0 | 0.00 | 1.13 | 0.00 | 85 | 1011.4 |
| 20260510013902 | 59 | 219 | 0.0 | 0.0 | 0.00 | 1.13 | 0.00 | 85 | 1011.4 |
| 20260510013403 | 59 | 219 | 0.0 | 0.0 | 0.00 | 1.13 | 0.00 | 85 | 1011.4 |
| 20260510012902 | 60 | 219 | 0.0 | 0.0 | 0.00 | 1.13 | 0.00 | 85 | 1011.4 |
| 20260510012403 | 60 | 219 | 0.0 | 0.0 | 0.00 | 1.13 | 0.00 | 86 | 1011.4 |
| 20260510011902 | 60 | 219 | 0.0 | 0.0 | 0.00 | 1.13 | 0.00 | 85 | 1011.5 |
| 20260510011402 | 60 | 219 | 0.0 | 0.0 | 0.00 | 1.13 | 0.00 | 85 | 1011.5 |
| 20260510010902 | 60 | 219 | 0.0 | 0.0 | 0.00 | 1.13 | 0.00 | 85 | 1011.4 |
| 20260510010402 | 60 | 219 | 0.0 | 0.0 | 0.00 | 1.13 | 0.00 | 86 | 1011.5 |
| 20260510005902 | 60 | 219 | 0.0 | 0.0 | 0.00 | 1.13 | 0.00 | 85 | 1011.5 |
| 20260510005403 | 60 | 219 | 0.0 | 0.0 | 0.00 | 1.13 | 0.00 | 84 | 1011.6 |
| 20260510004903 | 60 | 219 | 0.0 | 0.0 | 0.00 | 1.13 | 0.00 | 85 | 1011.6 |
| 20260510004403 | 61 | 219 | 0.0 | 1.0 | 0.00 | 1.13 | 0.00 | 84 | 1011.6 |
| 20260510003902 | 61 | 219 | 0.0 | 0.0 | 0.00 | 1.13 | 0.00 | 84 | 1011.7 |
| 20260510003403 | 61 | 219 | 0.0 | 1.0 | 0.00 | 1.13 | 0.00 | 84 | 1011.8 |
| 20260510002902 | 61 | 219 | 1.0 | 2.0 | 0.00 | 1.13 | 0.00 | 84 | 1011.9 |
| 20260510001903 | 61 | 219 | 0.0 | 0.0 | 0.00 | 1.13 | 0.00 | 84 | 1012.0 |
| 20260510000403 | 61 | 207 | 1.0 | 3.0 | 0.00 | 1.13 | 0.00 | 84 | 1012.2 |
| 20260509235902 | 60 | 184 | 2.0 | 3.0 | 0.00 | 1.13 | 0.00 | 85 | 1012.3 |
| 20260509235402 | 60 | 236 | 0.0 | 2.0 | 0.00 | 1.13 | 0.00 | 85 | 1012.2 |
| 20260509234902 | 60 | 236 | 1.0 | 3.0 | 0.00 | 1.13 | 0.00 | 85 | 1012.2 |
| 20260509234403 | 60 | 231 | 2.0 | 3.0 | 0.00 | 1.13 | 0.00 | 85 | 1012.2 |
| 20260509233903 | 60 | 282 | 2.0 | 3.0 | 0.00 | 1.13 | 0.00 | 85 | 1012.3 |
| 20260509233403 | 61 | 313 | 2.0 | 3.0 | 0.00 | 1.13 | 0.00 | 85 | 1012.3 |
| 20260509232902 | 61 | 276 | 2.0 | 3.0 | 0.00 | 1.13 | 0.00 | 85 | 1012.3 |
| 20260509232402 | 61 | 263 | 0.0 | 2.0 | 0.00 | 1.13 | 0.00 | 85 | 1012.2 |
| 20260509231903 | 61 | 263 | 1.0 | 2.0 | 0.00 | 1.13 | 0.00 | 85 | 1012.2 |
| 20260509231403 | 61 | 249 | 2.0 | 3.0 | 0.00 | 1.13 | 0.00 | 84 | 1012.2 |
| 20260509230903 | 61 | 261 | 2.0 | 3.0 | 0.00 | 1.13 | 0.00 | 84 | 1012.2 |
| 20260509225903 | 61 | 321 | 1.0 | 3.0 | 0.00 | 1.13 | 0.00 | 84 | 1012.2 |
| 20260509225402 | 61 | 24 | 1.0 | 2.0 | 0.00 | 1.13 | 0.00 | 84 | 1012.3 |
| 20260509224903 | 61 | 347 | 2.0 | 3.0 | 0.00 | 1.13 | 0.00 | 84 | 1012.2 |
| 20260509224403 | 61 | 217 | 2.0 | 3.0 | 0.00 | 1.13 | 0.00 | 84 | 1012.2 |
| 20260509223902 | 61 | 240 | 1.0 | 2.0 | 0.00 | 1.13 | 0.00 | 84 | 1012.2 |
| 20260509223402 | 61 | 240 | 0.0 | 1.0 | 0.00 | 1.13 | 0.00 | 84 | 1012.1 |
| 20260509222902 | 61 | 240 | 0.0 | 2.0 | 0.00 | 1.13 | 0.00 | 84 | 1012.1 |
| 20260509222403 | 61 | 132 | 0.0 | 0.0 | 0.00 | 1.13 | 0.00 | 83 | 1012.0 |
| 20260509221902 | 61 | 132 | 0.0 | 1.0 | 0.00 | 1.13 | 0.00 | 84 | 1012.1 |
| 20260509221402 | 61 | 254 | 2.0 | 3.0 | 0.00 | 1.13 | 0.00 | 83 | 1012.1 |
| 20260509220402 | 61 | 246 | 2.0 | 5.0 | 0.00 | 1.13 | 0.00 | 84 | 1012.3 |
| 20260509215903 | 60 | 245 | 3.0 | 5.0 | 0.00 | 1.13 | 1.13 | 84 | 1012.4 |
| 20260509214902 | 61 | 262 | 3.0 | 5.0 | 0.00 | 1.13 | 1.13 | 83 | 1012.4 |
| 20260509214402 | 61 | 255 | 1.0 | 3.0 | 0.00 | 1.13 | 1.13 | 82 | 1012.4 |
| 20260509213402 | 62 | 239 | 4.0 | 6.0 | 0.00 | 1.13 | 1.13 | 80 | 1012.4 |
| 20260509212402 | 63 | 250 | 5.0 | 7.0 | 0.00 | 1.13 | 1.13 | 79 | 1012.4 |
| 20260509211902 | 63 | 271 | 3.0 | 7.0 | 0.00 | 1.13 | 1.13 | 79 | 1012.4 |
| 20260509211402 | 63 | 293 | 3.0 | 6.0 | 0.00 | 1.13 | 1.13 | 80 | 1012.3 |
| 20260509210403 | 62 | 327 | 5.0 | 7.0 | 0.00 | 1.13 | 1.13 | 82 | 1012.2 |
| 20260509205902 | 62 | 335 | 4.0 | 5.0 | 0.00 | 1.13 | 1.13 | 83 | 1012.1 |
| 20260509205402 | 62 | 331 | 3.0 | 3.0 | 0.00 | 1.13 | 1.13 | 84 | 1012.0 |
| 20260509204903 | 62 | 261 | 2.0 | 3.0 | 0.00 | 1.13 | 1.13 | 84 | 1011.9 |
| 20260509203902 | 63 | 6 | 1.0 | 3.0 | 0.00 | 1.13 | 1.13 | 83 | 1011.9 |
| 20260509203403 | 63 | 311 | 2.0 | 3.0 | 0.00 | 1.13 | 1.13 | 83 | 1011.9 |
| 20260509202903 | 63 | 287 | 2.0 | 3.0 | 0.00 | 1.13 | 1.13 | 83 | 1011.8 |
| 20260509202403 | 63 | 255 | 3.0 | 5.0 | 0.00 | 1.13 | 1.13 | 83 | 1011.8 |
| 20260509201903 | 63 | 323 | 2.0 | 3.0 | 0.00 | 1.13 | 1.13 | 81 | 1011.8 |
| 20260509201403 | 63 | 284 | 2.0 | 3.0 | 0.00 | 1.13 | 1.13 | 82 | 1011.8 |
| 20260509200903 | 63 | 228 | 1.0 | 3.0 | 0.00 | 1.13 | 1.13 | 81 | 1011.7 |
| 20260509195402 | 64 | 49 | 4.0 | 6.0 | 0.00 | 1.13 | 1.13 | 81 | 1011.3 |
| 20260509194902 | 63 | 34 | 2.0 | 3.0 | 0.00 | 1.13 | 1.13 | 82 | 1011.2 |
| 20260509193902 | 64 | 71 | 1.0 | 2.0 | 0.00 | 1.13 | 1.13 | 82 | 1011.0 |
| 20260509192903 | 64 | 129 | 2.0 | 5.0 | 0.00 | 1.13 | 1.13 | 82 | 1010.8 |
| 20260509192403 | 64 | 150 | 4.0 | 5.0 | 0.00 | 1.13 | 1.13 | 81 | 1010.9 |
| 20260509191902 | 64 | 150 | 2.0 | 3.0 | 0.00 | 1.13 | 1.13 | 82 | 1010.9 |
| 20260509191403 | 64 | 150 | 2.0 | 3.0 | 0.00 | 1.13 | 1.13 | 80 | 1010.9 |
| 20260509190903 | 64 | 123 | 1.0 | 2.0 | 0.00 | 1.13 | 1.13 | 80 | 1010.8 |
| 20260509190403 | 64 | 123 | 1.0 | 2.0 | 0.00 | 1.13 | 1.13 | 80 | 1010.7 |
| 20260509185903 | 64 | 123 | 2.0 | 3.0 | 0.00 | 1.13 | 1.13 | 80 | 1010.7 |
| 20260509185403 | 64 | 122 | 1.0 | 3.0 | 0.00 | 1.13 | 1.13 | 80 | 1010.6 |
| 20260509184903 | 64 | 61 | 0.0 | 3.0 | 0.00 | 1.13 | 1.13 | 80 | 1010.6 |
| 20260509184403 | 64 | 40 | 1.0 | 2.0 | 0.00 | 1.13 | 1.13 | 79 | 1010.5 |
| 20260509182903 | 65 | 44 | 1.0 | 2.0 | 0.00 | 1.13 | 1.13 | 78 | 1010.3 |
| 20260509182402 | 65 | 111 | 1.0 | 2.0 | 0.00 | 1.13 | 1.13 | 78 | 1010.3 |
| 20260509180902 | 65 | 355 | 1.0 | 3.0 | 0.00 | 1.13 | 1.13 | 78 | 1010.2 |
| 20260509180403 | 65 | 14 | 3.0 | 3.0 | 0.00 | 1.13 | 1.13 | 76 | 1010.2 |
| 20260509175903 | 65 | 40 | 2.0 | 3.0 | 0.00 | 1.13 | 1.13 | 76 | 1010.2 |
| 20260509174903 | 65 | 338 | 3.0 | 6.0 | 0.00 | 1.13 | 1.13 | 75 | 1010.1 |
| 20260509174402 | 65 | 48 | 1.0 | 6.0 | 0.00 | 1.13 | 1.13 | 76 | 1010.1 |
| 20260509173902 | 65 | 351 | 5.0 | 9.0 | 0.00 | 1.13 | 1.13 | 76 | 1010.0 |
| 20260509173403 | 65 | 21 | 3.0 | 8.0 | 0.00 | 1.13 | 1.13 | 77 | 1010.0 |
| 20260509172403 | 65 | 18 | 5.0 | 7.0 | 0.00 | 1.13 | 1.13 | 76 | 1010.1 |
| 20260509171903 | 65 | 358 | 2.0 | 6.0 | 0.00 | 1.13 | 1.13 | 78 | 1010.0 |
| 20260509170902 | 65 | 322 | 8.0 | 10.0 | 0.00 | 1.13 | 1.13 | 77 | 1010.0 |
| 20260509170402 | 65 | 346 | 7.0 | 10.0 | 0.00 | 1.13 | 1.13 | 76 | 1009.9 |
| 20260509165403 | 65 | 335 | 5.0 | 10.0 | 0.00 | 1.13 | 1.13 | 77 | 1009.8 |
| 20260509164902 | 65 | 351 | 6.0 | 10.0 | 0.00 | 1.13 | 1.13 | 76 | 1009.7 |
| 20260509164402 | 65 | 353 | 7.0 | 12.0 | 0.00 | 1.13 | 1.13 | 77 | 1009.7 |
| 20260509163902 | 65 | 351 | 6.0 | 12.0 | 0.00 | 1.13 | 1.13 | 77 | 1009.7 |
| 20260509163402 | 65 | 343 | 8.0 | 12.0 | 0.00 | 1.13 | 1.13 | 77 | 1009.7 |
| 20260509162902 | 65 | 2 | 6.0 | 14.0 | 0.00 | 1.13 | 1.13 | 78 | 1009.7 |
| 20260509161902 | 65 | 327 | 7.0 | 15.0 | 0.00 | 1.13 | 1.13 | 78 | 1009.6 |
| 20260509160903 | 65 | 17 | 5.0 | 12.0 | 0.00 | 1.13 | 1.13 | 79 | 1009.6 |
| 20260509160403 | 65 | 352 | 7.0 | 12.0 | 0.00 | 1.13 | 1.13 | 78 | 1009.6 |
| 20260509155902 | 65 | 350 | 9.0 | 13.0 | 0.00 | 1.13 | 1.13 | 79 | 1009.5 |
| 20260509155402 | 64 | 350 | 10.0 | 12.0 | 0.00 | 1.13 | 1.13 | 78 | 1009.5 |
| 20260509154903 | 64 | 325 | 5.0 | 12.0 | 0.00 | 1.13 | 1.13 | 79 | 1009.6 |
| 20260509154403 | 65 | 328 | 7.0 | 12.0 | 0.00 | 1.13 | 1.13 | 79 | 1009.6 |
| 20260509153903 | 65 | 296 | 4.0 | 12.0 | 0.00 | 1.13 | 1.13 | 80 | 1009.6 |
| 20260509153403 | 64 | 352 | 3.0 | 8.0 | 0.00 | 1.13 | 1.13 | 81 | 1009.5 |
| 20260509152903 | 64 | 13 | 8.0 | 12.0 | 0.00 | 1.13 | 1.13 | 80 | 1009.3 |
| 20260509152402 | 65 | 326 | 6.0 | 10.0 | 0.00 | 1.13 | 1.13 | 78 | 1009.3 |
| 20260509151902 | 64 | 315 | 5.0 | 10.0 | 0.00 | 1.13 | 1.13 | 81 | 1009.3 |